| time (UTC) | temp F | wind direction | speed MPH | gust MPH | rain 1hr in | rain 24hr in | rain mn in | humidity % | barometer mb |
| 20260904181558 | 79 | 218 | 6.0 | 0.0 | 0.00 | 0.00 | 0.00 | 26 | 1003.9 |
| 20260904180017 | 79 | 211 | 6.0 | 0.0 | 0.00 | 0.00 | 0.00 | 26 | 1003.9 |
| 20260904174506 | 79 | 199 | 6.0 | 0.0 | 0.00 | 0.00 | 0.00 | 27 | 1003.8 |
| 20260904173109 | 78 | 225 | 5.0 | 0.0 | 0.00 | 0.00 | 0.00 | 28 | 1003.9 |
| 20260904171612 | 78 | 192 | 6.0 | 0.0 | 0.00 | 0.00 | 0.00 | 27 | 1004.0 |
| 20260904170135 | 78 | 222 | 6.0 | 0.0 | 0.00 | 0.00 | 0.00 | 27 | 1003.9 |
| 20260904164634 | 77 | 196 | 5.0 | 0.0 | 0.00 | 0.00 | 0.00 | 27 | 1003.9 |
| 20260904163026 | 77 | 217 | 6.0 | 0.0 | 0.00 | 0.00 | 0.00 | 27 | 1004.0 |
| 20260904161637 | 76 | 190 | 7.0 | 0.0 | 0.00 | 0.00 | 0.00 | 27 | 1004.1 |
| 20260904160116 | 76 | 204 | 6.0 | 0.0 | 0.00 | 0.00 | 0.00 | 28 | 1003.9 |
| 20260904154547 | 76 | 224 | 7.0 | 0.0 | 0.00 | 0.00 | 0.00 | 29 | 1003.9 |
| 20260904153102 | 75 | 207 | 7.0 | 0.0 | 0.00 | 0.00 | 0.00 | 29 | 1003.8 |
| 20260904151510 | 75 | 219 | 6.0 | 0.0 | 0.00 | 0.00 | 0.00 | 30 | 1003.8 |
| 20260904150108 | 74 | 196 | 6.0 | 0.0 | 0.00 | 0.00 | 0.00 | 30 | 1003.9 |
| 20260904144603 | 73 | 171 | 7.0 | 0.0 | 0.00 | 0.00 | 0.00 | 32 | 1004.0 |
| 20260904143006 | 73 | 211 | 6.0 | 0.0 | 0.00 | 0.00 | 0.00 | 30 | 1004.2 |
| 20260904141615 | 72 | 213 | 6.0 | 0.0 | 0.00 | 0.00 | 0.00 | 31 | 1004.2 |
| 20260904140051 | 72 | 214 | 4.0 | 0.0 | 0.00 | 0.00 | 0.00 | 29 | 1004.1 |
| 20260904134639 | 72 | 214 | 5.0 | 0.0 | 0.00 | 0.00 | 0.00 | 27 | 1004.1 |
| 20260904133111 | 72 | 203 | 4.0 | 0.0 | 0.00 | 0.00 | 0.00 | 26 | 1003.9 |
| 20260904131537 | 72 | 218 | 5.0 | 0.0 | 0.00 | 0.00 | 0.00 | 25 | 1003.4 |
| 20260904130122 | 72 | 201 | 4.0 | 0.0 | 0.00 | 0.00 | 0.00 | 25 | 1003.5 |
| 20260904124607 | 72 | 200 | 5.0 | 0.0 | 0.00 | 0.00 | 0.00 | 24 | 1003.4 |
| 20260904123045 | 73 | 182 | 4.0 | 0.0 | 0.00 | 0.00 | 0.00 | 23 | 1003.2 |
| 20260904121621 | 72 | 213 | 4.0 | 0.0 | 0.00 | 0.00 | 0.00 | 23 | 1003.1 |
| 20260904120115 | 72 | 194 | 4.0 | 0.0 | 0.00 | 0.00 | 0.00 | 22 | 1002.9 |
| 20260904114523 | 73 | 206 | 4.0 | 0.0 | 0.00 | 0.00 | 0.00 | 21 | 1002.6 |
| 20260904113027 | 73 | 202 | 6.0 | 0.0 | 0.00 | 0.00 | 0.00 | 21 | 1002.8 |
| 20260904111611 | 73 | 200 | 3.0 | 0.0 | 0.00 | 0.00 | 0.00 | 21 | 1002.8 |
| 20260904110002 | 73 | 207 | 5.0 | 0.0 | 0.00 | 0.00 | 0.00 | 20 | 1002.8 |
| 20260904104607 | 74 | 203 | 6.0 | 0.0 | 0.00 | 0.00 | 0.00 | 19 | 1002.8 |
| 20260904103021 | 74 | 267 | 6.0 | 0.0 | 0.00 | 0.00 | 0.00 | 18 | 1002.8 |
| 20260904101627 | 74 | 199 | 7.0 | 0.0 | 0.00 | 0.00 | 0.00 | 17 | 1002.6 |
| 20260904100112 | 74 | 216 | 5.0 | 0.0 | 0.00 | 0.00 | 0.00 | 17 | 1002.3 |
| 20260904094514 | 74 | 209 | 5.0 | 0.0 | 0.00 | 0.00 | 0.00 | 17 | 1002.2 |
| 20260904093131 | 74 | 201 | 5.0 | 0.0 | 0.00 | 0.00 | 0.00 | 16 | 1002.2 |
| 20260904091616 | 75 | 206 | 5.0 | 0.0 | 0.00 | 0.00 | 0.00 | 16 | 1002.2 |
| 20260904090009 | 75 | 215 | 5.0 | 0.0 | 0.00 | 0.00 | 0.00 | 15 | 1002.1 |
| 20260904084510 | 75 | 221 | 3.0 | 0.0 | 0.00 | 0.00 | 0.00 | 16 | 1002.1 |
| 20260904083034 | 76 | 227 | 5.0 | 0.0 | 0.00 | 0.00 | 0.00 | 15 | 1002.1 |
| 20260904081505 | 76 | 190 | 4.0 | 0.0 | 0.00 | 0.00 | 0.00 | 15 | 1001.7 |
| 20260904080118 | 76 | 215 | 3.0 | 0.0 | 0.00 | 0.00 | 0.00 | 16 | 1001.8 |
| 20260904074551 | 76 | 209 | 4.0 | 0.0 | 0.00 | 0.00 | 0.00 | 16 | 1001.9 |
| 20260904073134 | 76 | 185 | 3.0 | 0.0 | 0.00 | 0.00 | 0.00 | 16 | 1001.8 |
| 20260904071600 | 77 | 221 | 3.0 | 0.0 | 0.00 | 0.00 | 0.00 | 16 | 1001.9 |
| 20260904070127 | 77 | 199 | 5.0 | 0.0 | 0.00 | 0.00 | 0.00 | 16 | 1002.0 |
| 20260904064616 | 77 | 218 | 4.0 | 0.0 | 0.00 | 0.00 | 0.00 | 17 | 1001.9 |
| 20260904063107 | 77 | 234 | 4.0 | 0.0 | 0.00 | 0.00 | 0.00 | 17 | 1001.9 |
| 20260904061510 | 77 | 187 | 2.0 | 0.0 | 0.00 | 0.00 | 0.00 | 17 | 1002.0 |
| 20260904060134 | 77 | 196 | 3.0 | 0.0 | 0.00 | 0.00 | 0.00 | 17 | 1001.9 |
| 20260904054637 | 76 | 249 | 3.0 | 0.0 | 0.00 | 0.00 | 0.00 | 18 | 1001.9 |
| 20260904053035 | 77 | 215 | 3.0 | 0.0 | 0.00 | 0.00 | 0.00 | 18 | 1001.7 |
| 20260904051631 | 77 | 194 | 3.0 | 0.0 | 0.00 | 0.00 | 0.00 | 18 | 1001.8 |
| 20260904050114 | 77 | 205 | 3.0 | 0.0 | 0.00 | 0.00 | 0.00 | 18 | 1001.8 |
| 20260904044549 | 78 | 200 | 4.0 | 0.0 | 0.00 | 0.00 | 0.00 | 17 | 1001.9 |
| 20260904043036 | 78 | 219 | 4.0 | 0.0 | 0.00 | 0.00 | 0.00 | 17 | 1001.9 |
| 20260904041621 | 78 | 212 | 2.0 | 0.0 | 0.00 | 0.00 | 0.00 | 18 | 1001.9 |
| 20260904040033 | 78 | 195 | 2.0 | 0.0 | 0.00 | 0.00 | 0.00 | 18 | 1001.8 |
| 20260904034506 | 78 | 213 | 2.0 | 0.0 | 0.00 | 0.00 | 0.00 | 18 | 1001.7 |
| 20260904033110 | 77 | 210 | 3.0 | 0.0 | 0.00 | 0.00 | 0.00 | 19 | 1001.7 |
| 20260904031541 | 77 | 184 | 2.0 | 0.0 | 0.00 | 0.00 | 0.00 | 19 | 1001.8 |
| 20260904030122 | 77 | 185 | 2.0 | 0.0 | 0.00 | 0.00 | 0.00 | 20 | 1001.7 |
| 20260904024619 | 78 | 209 | 2.0 | 0.0 | 0.00 | 0.00 | 0.00 | 20 | 1001.7 |
| 20260904023057 | 78 | 202 | 1.0 | 0.0 | 0.00 | 0.00 | 0.00 | 19 | 1001.5 |
| 20260904021541 | 78 | 199 | 2.0 | 0.0 | 0.00 | 0.00 | 0.00 | 20 | 1001.7 |
| 20260904020127 | 78 | 209 | 1.0 | 0.0 | 0.00 | 0.00 | 0.00 | 21 | 1001.6 |
| 20260904014617 | 80 | 210 | 2.0 | 0.0 | 0.00 | 0.00 | 0.00 | 20 | 1001.5 |
| 20260904013128 | 80 | 197 | 4.0 | 0.0 | 0.00 | 0.00 | 0.00 | 19 | 1001.6 |
| 20260904011558 | 81 | 208 | 3.0 | 0.0 | 0.00 | 0.00 | 0.00 | 20 | 1001.7 |
| 20260904010128 | 81 | 204 | 6.0 | 0.0 | 0.00 | 0.00 | 0.00 | 18 | 1001.7 |
| 20260904004549 | 81 | 225 | 4.0 | 0.0 | 0.00 | 0.00 | 0.00 | 18 | 1001.6 |
| 20260904003021 | 82 | 202 | 5.0 | 0.0 | 0.00 | 0.00 | 0.00 | 18 | 1001.6 |
| 20260904001626 | 82 | 216 | 5.0 | 0.0 | 0.00 | 0.00 | 0.00 | 18 | 1001.8 |
| 20260904000056 | 82 | 198 | 4.0 | 0.0 | 0.00 | 0.00 | 0.00 | 18 | 1001.9 |
| 20260903234542 | 83 | 239 | 6.0 | 0.0 | 0.00 | 0.00 | 0.00 | 16 | 1002.0 |
| 20260903233124 | 84 | 217 | 5.0 | 0.0 | 0.00 | 0.00 | 0.00 | 17 | 1002.1 |
| 20260903231613 | 84 | 227 | 7.0 | 0.0 | 0.00 | 0.00 | 0.00 | 16 | 1002.2 |
| 20260903230028 | 84 | 209 | 6.0 | 0.0 | 0.00 | 0.00 | 0.00 | 16 | 1002.2 |
| 20260903224615 | 84 | 212 | 6.0 | 0.0 | 0.00 | 0.00 | 0.00 | 16 | 1002.6 |
| 20260903223103 | 84 | 226 | 5.0 | 0.0 | 0.00 | 0.00 | 0.00 | 16 | 1002.7 |
| 20260903221636 | 85 | 185 | 5.0 | 0.0 | 0.00 | 0.00 | 0.00 | 17 | 1002.9 |
| 20260903220047 | 84 | 184 | 5.0 | 0.0 | 0.00 | 0.00 | 0.00 | 18 | 1003.3 |
| 20260903214516 | 84 | 200 | 5.0 | 0.0 | 0.00 | 0.00 | 0.00 | 16 | 1003.5 |
| 20260903213120 | 83 | 78 | 5.0 | 0.0 | 0.00 | 0.00 | 0.00 | 16 | 1003.6 |
| 20260903211510 | 83 | 174 | 4.0 | 0.0 | 0.00 | 0.00 | 0.00 | 17 | 1003.9 |
| 20260903210117 | 83 | 258 | 5.0 | 0.0 | 0.00 | 0.00 | 0.00 | 17 | 1004.0 |
| 20260903204552 | 82 | 188 | 5.0 | 0.0 | 0.00 | 0.00 | 0.00 | 16 | 1004.4 |
| 20260903203124 | 82 | 195 | 4.0 | 0.0 | 0.00 | 0.00 | 0.00 | 18 | 1004.8 |
| 20260903201605 | 82 | 190 | 5.0 | 0.0 | 0.00 | 0.00 | 0.00 | 19 | 1005.0 |
| 20260903200013 | 81 | 218 | 6.0 | 0.0 | 0.00 | 0.00 | 0.00 | 19 | 1005.1 |
| 20260903194626 | 81 | 222 | 4.0 | 0.0 | 0.00 | 0.00 | 0.00 | 18 | 1005.0 |
| 20260903193012 | 80 | 190 | 5.0 | 0.0 | 0.00 | 0.00 | 0.00 | 18 | 1005.6 |
| 20260903191633 | 79 | 209 | 5.0 | 0.0 | 0.00 | 0.00 | 0.00 | 20 | 1005.8 |
| 20260903190121 | 79 | 195 | 5.0 | 0.0 | 0.00 | 0.00 | 0.00 | 19 | 1006.0 |
| 20260903184515 | 78 | 232 | 5.0 | 0.0 | 0.00 | 0.00 | 0.00 | 20 | 1006.1 |
| 20260903183108 | 78 | 194 | 6.0 | 0.0 | 0.00 | 0.00 | 0.00 | 20 | 1006.3 |